Weather History for Phoenix, AZ

Change the Weather History Date:

Monday, October 7, 2013

  Actual Average Record
Temperature  
Mean Temperature 82 °F 80 °F  
Max Temperature 97 °F 92 °F 104 °F (1991)
Min Temperature 66 °F 69 °F 44 °F (1913)
Degree Days  
Heating Degree Days 0 0  
Month to date heating degree days 0 0  
Since 1 July heating degree days 0 0  
Cooling Degree Days 17 15  
Month to date cooling degree days 105 116  
Year to date cooling degree days 4712 4285  
Growing Degree Days 32 (Base 50)    
Moisture  
Dew Point 25 °F    
Average Humidity 16    
Maximum Humidity 26    
Minimum Humidity 6    
Precipitation  
Precipitation 0.00 in 0.02 in 0.30 in (1924)
Month to date precipitation 0.00 0.14  
Year to date precipitation 5.60 6.06  
Snow  
Snow 0.00 in - - ()
Month to date snowfall 0.0  
Year to date snowfall 0.0  
Since 1 July snowfall 0.0  
Snow Depth 0.00 in    
Sea Level Pressure  
Sea Level Pressure 29.86 in    
Wind  
Wind Speed 4 mph (ESE)    
Max Wind Speed 17 mph    
Max Gust Speed 21 mph    
Visibility 10 miles    
Events      
T = Trace of Precipitation, MM = Missing Value Source: NWS Daily Summary

Daily Weather History Graph

Daily Weather History Graph

Search for Another Location

Airport:

Trip Planner

Search our weather history database for the weather conditions in past years. The results will help you decide how hot, cold, wet, or windy it might be!

Date:

Astronomy

Oct. 07, 2013 Rise Set
Actual Time 6:26 AM MST 6:04 PM MST
Civil Twilight 6:01 AM MST 6:28 PM MST
Nautical Twilight 5:33 AM MST 6:57 PM MST
Astronomical Twilight 5:04 AM MST 7:26 PM MST
Moon 9:11 AM MST (10/7) 8:01 PM MST (10/7)
Length of Visible Light 12h 26m
Length of Day
11h 37m
Waxing Crescent, 9% of the Moon is Illuminated
Oct 7
Waxing Crescent
Oct 11
First Quarter
Oct 18
Full
Oct 26
Last Quarter
Nov 3
New

Hourly Weather History & Observations

Time (MST) Temp. Dew Point Humidity Pressure Visibility Wind Dir Wind Speed Gust Speed Precip Events Conditions
12:51 AM 72.0 °F 35.6 °F 26% 29.92 in 10.0 mi Calm Calm - N/A   Clear
1:51 AM 71.1 °F 28.0 °F 20% 29.91 in 10.0 mi Calm Calm - N/A   Clear
2:51 AM 72.0 °F 25.0 °F 17% 29.91 in 10.0 mi Calm Calm - N/A   Clear
3:51 AM 66.9 °F 30.0 °F 25% 29.92 in 10.0 mi South 3.5 mph - N/A   Clear
4:51 AM 69.1 °F 24.1 °F 18% 29.92 in 10.0 mi East 5.8 mph - N/A   Clear
5:51 AM 70.0 °F 21.9 °F 16% 29.93 in 10.0 mi ESE 3.5 mph - N/A   Partly Cloudy
6:51 AM 70.0 °F 21.0 °F 16% 29.94 in 10.0 mi ESE 5.8 mph - N/A   Mostly Cloudy
7:51 AM 73.0 °F 25.0 °F 17% 29.94 in 10.0 mi East 4.6 mph - N/A   Mostly Cloudy
8:51 AM 82.0 °F 19.9 °F 10% 29.94 in 10.0 mi ENE 13.8 mph - N/A   Mostly Cloudy
9:51 AM 84.0 °F 21.0 °F 10% 29.94 in 10.0 mi ENE 15.0 mph - N/A   Mostly Cloudy
10:51 AM 87.1 °F 21.9 °F 9% 29.92 in 10.0 mi East 10.4 mph - N/A   Mostly Cloudy
11:51 AM 89.1 °F 23.0 °F 9% 29.89 in 10.0 mi Variable 6.9 mph - N/A   Mostly Cloudy
12:51 PM 91.0 °F 24.1 °F 9% 29.86 in 10.0 mi Calm Calm - N/A   Mostly Cloudy
1:51 PM 93.9 °F 25.0 °F 8% 29.83 in 10.0 mi Calm Calm - N/A   Mostly Cloudy
2:51 PM 96.1 °F 21.9 °F 7% 29.81 in 10.0 mi South 10.4 mph - N/A   Mostly Cloudy
3:51 PM 95.0 °F 18.0 °F 6% 29.80 in 10.0 mi South 4.6 mph - N/A   Mostly Cloudy
4:51 PM 93.0 °F 19.0 °F 7% 29.80 in 10.0 mi WSW 5.8 mph - N/A   Mostly Cloudy
5:51 PM 91.9 °F 19.0 °F 7% 29.79 in 10.0 mi NW 6.9 mph - N/A   Mostly Cloudy
6:51 PM 91.0 °F 19.9 °F 7% 29.78 in 10.0 mi WNW 3.5 mph - N/A   Mostly Cloudy
7:51 PM 86.0 °F 26.1 °F 11% 29.80 in 10.0 mi Calm Calm - N/A   Mostly Cloudy
8:51 PM 82.0 °F 30.0 °F 15% 29.80 in 10.0 mi Calm Calm - N/A   Mostly Cloudy
9:51 PM 79.0 °F 30.9 °F 17% 29.80 in 10.0 mi Calm Calm - N/A   Mostly Cloudy
10:51 PM 78.1 °F 32.0 °F 19% 29.80 in 10.0 mi Calm Calm - N/A   Mostly Cloudy
11:51 PM 75.9 °F 35.1 °F 23% 29.79 in 10.0 mi ENE 3.5 mph - N/A   Mostly Cloudy